Time,TemperatureF,DewpointF,PressureIn,WindDirection,WindDirectionDegrees,WindSpeedMPH,WindSpeedGustMPH,Humidity,HourlyPrecipIn,Conditions,Clouds,dailyrainin,SoftwareType,DateUTC
2013-02-19 00:02:00,44.8,11.1,29.87,SSW,194,6.3,6.3,25,0.00,,,0.00,VWS V14.01,2013-02-19 08:02:00,
2013-02-19 00:07:00,44.8,11.1,29.87,WSW,240,6.3,7.6,25,0.00,,,0.00,VWS V14.01,2013-02-19 08:07:00,
2013-02-19 00:12:00,45.0,11.3,29.87,West,273,10.5,10.5,25,0.00,,,0.00,VWS V14.01,2013-02-19 08:12:00,
2013-02-19 00:17:00,45.0,11.3,29.87,WNW,298,5.8,5.8,25,0.00,,,0.00,VWS V14.01,2013-02-19 08:17:00,
2013-02-19 00:22:00,44.8,12.9,29.87,WSW,240,4.0,5.8,27,0.00,,,0.00,VWS V14.01,2013-02-19 08:22:00,
2013-02-19 00:27:00,44.8,12.9,29.87,WNW,286,4.0,8.3,27,0.00,,,0.00,VWS V14.01,2013-02-19 08:27:00,
2013-02-19 00:32:00,44.8,12.9,29.87,WNW,284,3.1,5.8,27,0.00,,,0.00,VWS V14.01,2013-02-19 08:32:00,
2013-02-19 00:37:00,44.8,12.9,29.87,WSW,241,3.1,8.3,27,0.00,,,0.00,VWS V14.01,2013-02-19 08:37:00,
2013-02-19 00:42:00,44.8,12.9,29.84,WSW,250,4.0,4.0,27,0.00,,,0.00,VWS V14.01,2013-02-19 08:42:00,
2013-02-19 00:47:00,44.8,13.7,29.84,WNW,288,2.7,2.7,28,0.00,,,0.00,VWS V14.01,2013-02-19 08:47:00,
2013-02-19 00:52:00,44.8,12.9,29.84,West,272,3.1,3.6,27,0.00,,,0.00,VWS V14.01,2013-02-19 08:52:00,
2013-02-19 00:57:00,44.8,12.9,29.84,SW,227,3.1,3.1,27,0.00,,,0.00,VWS V14.01,2013-02-19 08:57:00,
2013-02-19 01:02:00,45.0,13.8,29.84,South,190,3.6,5.4,28,0.00,,,0.00,VWS V14.01,2013-02-19 09:02:00,
2013-02-19 01:07:00,45.0,13.8,29.84,SSW,207,2.2,3.6,28,0.00,,,0.00,VWS V14.01,2013-02-19 09:07:00,
2013-02-19 01:12:00,45.0,13.8,29.84,WSW,255,3.1,3.1,28,0.00,,,0.00,VWS V14.01,2013-02-19 09:12:00,
2013-02-19 01:17:00,45.0,13.8,29.84,NW,311,5.8,7.6,28,0.00,,,0.00,VWS V14.01,2013-02-19 09:17:00,
2013-02-19 01:22:00,45.0,13.8,29.84,SW,223,3.6,3.6,28,0.00,,,0.00,VWS V14.01,2013-02-19 09:22:00,
2013-02-19 01:27:00,45.0,13.8,29.84,NW,319,5.4,5.4,28,0.00,,,0.00,VWS V14.01,2013-02-19 09:27:00,
2013-02-19 01:32:00,45.0,13.8,29.84,WNW,301,4.0,7.2,28,0.00,,,0.00,VWS V14.01,2013-02-19 09:32:00,
2013-02-19 01:37:00,45.0,13.8,29.84,West,274,3.6,4.0,28,0.00,,,0.00,VWS V14.01,2013-02-19 09:37:00,
2013-02-19 01:42:00,45.0,13.8,29.84,WSW,242,3.1,3.6,28,0.00,,,0.00,VWS V14.01,2013-02-19 09:42:00,
2013-02-19 01:47:00,45.0,13.8,29.84,West,274,2.7,4.0,28,0.00,,,0.00,VWS V14.01,2013-02-19 09:47:00,
2013-02-19 01:52:00,45.0,13.8,29.84,SSW,202,0.0,2.7,28,0.00,,,0.00,VWS V14.01,2013-02-19 09:52:00,
2013-02-19 01:57:00,45.0,14.6,29.84,SW,222,2.7,3.1,29,0.00,,,0.00,VWS V14.01,2013-02-19 09:57:00,
2013-02-19 02:02:00,45.0,14.6,29.84,WSW,239,4.0,4.9,29,0.00,,,0.00,VWS V14.01,2013-02-19 10:02:00,
2013-02-19 02:07:00,44.8,13.7,29.84,SSW,210,3.1,3.1,28,0.00,,,0.00,VWS V14.01,2013-02-19 10:07:00,
2013-02-19 02:12:00,44.8,13.7,29.84,West,280,5.4,5.4,28,0.00,,,0.00,VWS V14.01,2013-02-19 10:12:00,
2013-02-19 02:17:00,44.8,13.7,29.84,West,280,3.6,6.3,28,0.00,,,0.00,VWS V14.01,2013-02-19 10:17:00,
2013-02-19 02:22:00,44.8,13.7,29.84,SSW,198,3.1,3.1,28,0.00,,,0.00,VWS V14.01,2013-02-19 10:22:00,
2013-02-19 02:27:00,44.8,14.5,29.84,West,261,3.1,5.4,29,0.00,,,0.00,VWS V14.01,2013-02-19 10:27:00,
2013-02-19 02:32:00,44.8,14.5,29.84,SW,227,0.0,5.4,29,0.00,,,0.00,VWS V14.01,2013-02-19 10:32:00,
2013-02-19 02:37:00,44.8,14.5,29.84,SW,221,2.2,3.6,29,0.00,,,0.00,VWS V14.01,2013-02-19 10:37:00,
2013-02-19 02:42:00,44.8,14.5,29.81,SSW,212,3.6,3.6,29,0.00,,,0.00,VWS V14.01,2013-02-19 10:42:00,
2013-02-19 02:47:00,44.8,15.3,29.81,SW,232,3.6,5.4,30,0.00,,,0.00,VWS V14.01,2013-02-19 10:47:00,
2013-02-19 02:52:00,44.6,15.1,29.81,West,264,4.0,4.0,30,0.00,,,0.00,VWS V14.01,2013-02-19 10:52:00,
2013-02-19 02:57:00,44.6,15.9,29.81,West,272,5.4,5.8,31,0.00,,,0.00,VWS V14.01,2013-02-19 10:57:00,
2013-02-19 03:02:00,44.4,16.4,29.81,SW,236,2.7,2.7,32,0.00,,,0.00,VWS V14.01,2013-02-19 11:02:00,
2013-02-19 03:07:00,44.4,16.4,29.81,West,276,2.7,3.6,32,0.00,,,0.00,VWS V14.01,2013-02-19 11:07:00,
2013-02-19 03:12:00,44.2,17.0,29.81,West,276,0.0,2.2,33,0.00,,,0.00,VWS V14.01,2013-02-19 11:12:00,
2013-02-19 03:17:00,44.2,17.0,29.81,SW,217,2.7,3.1,33,0.00,,,0.00,VWS V14.01,2013-02-19 11:17:00,
2013-02-19 03:22:00,44.2,17.0,29.81,SW,214,2.7,3.6,33,0.00,,,0.00,VWS V14.01,2013-02-19 11:22:00,
2013-02-19 03:27:00,44.2,17.0,29.81,SW,214,0.0,0.0,33,0.00,,,0.00,VWS V14.01,2013-02-19 11:27:00,
2013-02-19 03:32:00,44.1,16.8,29.81,SW,214,0.0,0.0,33,0.00,,,0.00,VWS V14.01,2013-02-19 11:32:00,
2013-02-19 03:37:00,44.1,16.8,29.81,SSW,210,3.6,4.0,33,0.00,,,0.00,VWS V14.01,2013-02-19 11:37:00,
2013-02-19 03:42:00,43.9,17.4,29.81,SSW,210,2.2,2.7,34,0.00,,,0.00,VWS V14.01,2013-02-19 11:42:00,
2013-02-19 03:47:00,43.7,17.2,29.81,SSW,210,0.0,0.0,34,0.00,,,0.00,VWS V14.01,2013-02-19 11:47:00,
2013-02-19 03:52:00,43.3,16.9,29.81,SSW,210,0.0,0.0,34,0.00,,,0.00,VWS V14.01,2013-02-19 11:52:00,
2013-02-19 03:57:00,43.0,16.5,29.78,SSW,210,0.0,0.0,34,0.00,,,0.00,VWS V14.01,2013-02-19 11:57:00,
2013-02-19 04:02:00,42.8,16.4,29.78,SSW,210,0.0,2.2,34,0.00,,,0.00,VWS V14.01,2013-02-19 12:02:00,
2013-02-19 04:07:00,42.8,17.1,29.78,SSW,210,0.0,3.6,35,0.00,,,0.00,VWS V14.01,2013-02-19 12:07:00,
2013-02-19 04:12:00,43.0,18.5,29.78,SSW,210,3.6,3.6,37,0.00,,,0.00,VWS V14.01,2013-02-19 12:12:00,
2013-02-19 04:17:00,43.3,19.5,29.78,SW,226,2.7,3.6,38,0.00,,,0.00,VWS V14.01,2013-02-19 12:17:00,
2013-02-19 04:22:00,43.5,19.6,29.78,SW,228,3.1,3.1,38,0.00,,,0.00,VWS V14.01,2013-02-19 12:22:00,
2013-02-19 04:27:00,43.7,20.4,29.78,SW,225,2.7,2.7,39,0.00,,,0.00,VWS V14.01,2013-02-19 12:27:00,
2013-02-19 04:32:00,43.9,20.5,29.78,SW,230,0.0,3.1,39,0.00,,,0.00,VWS V14.01,2013-02-19 12:32:00,
2013-02-19 04:37:00,44.1,20.7,29.78,SSW,208,0.0,3.1,39,0.00,,,0.00,VWS V14.01,2013-02-19 12:37:00,
2013-02-19 04:42:00,44.2,20.9,29.78,SSW,212,3.6,3.6,39,0.00,,,0.00,VWS V14.01,2013-02-19 12:42:00,
2013-02-19 04:47:00,44.2,21.5,29.78,SW,226,3.1,3.6,40,0.00,,,0.00,VWS V14.01,2013-02-19 12:47:00,
2013-02-19 04:52:00,44.4,21.6,29.78,SW,233,3.1,3.1,40,0.00,,,0.00,VWS V14.01,2013-02-19 12:52:00,
2013-02-19 04:57:00,44.6,21.8,29.78,SW,223,4.0,4.0,40,0.00,,,0.00,VWS V14.01,2013-02-19 12:57:00,
2013-02-19 05:02:00,44.6,21.8,29.78,WSW,249,0.0,4.0,40,0.00,,,0.00,VWS V14.01,2013-02-19 13:02:00,
2013-02-19 05:07:00,44.8,22.0,29.78,SW,214,2.7,3.6,40,0.00,,,0.00,VWS V14.01,2013-02-19 13:07:00,
2013-02-19 05:12:00,44.8,22.0,29.78,SSW,194,0.0,3.1,40,0.00,,,0.00,VWS V14.01,2013-02-19 13:12:00,
2013-02-19 05:17:00,44.8,22.5,29.78,South,177,2.7,2.7,41,0.00,,,0.00,VWS V14.01,2013-02-19 13:17:00,
2013-02-19 05:22:00,45.0,22.7,29.78,SSE,162,4.9,4.9,41,0.00,,,0.00,VWS V14.01,2013-02-19 13:22:00,
2013-02-19 05:27:00,45.0,22.7,29.78,SSE,149,3.1,3.1,41,0.00,,,0.00,VWS V14.01,2013-02-19 13:27:00,
2013-02-19 05:32:00,45.0,22.7,29.78,SSE,166,6.3,8.1,41,0.00,,,0.00,VWS V14.01,2013-02-19 13:32:00,
2013-02-19 05:37:00,45.0,23.3,29.78,SW,221,3.6,4.0,42,0.00,,,0.00,VWS V14.01,2013-02-19 13:37:00,
2013-02-19 05:42:00,45.0,23.3,29.75,SW,222,2.7,2.7,42,0.00,,,0.00,VWS V14.01,2013-02-19 13:42:00,
2013-02-19 05:48:00,44.8,24.2,29.75,SW,214,4.0,5.4,44,0.04,,,0.04,VWS V14.01,2013-02-19 13:48:00,
2013-02-19 05:53:00,44.8,25.8,29.75,SW,232,5.4,5.8,47,0.04,,,0.04,VWS V14.01,2013-02-19 13:53:00,
2013-02-19 05:58:00,45.0,27.0,29.78,SW,216,4.0,4.0,49,0.04,,,0.04,VWS V14.01,2013-02-19 13:58:00,
2013-02-19 06:03:00,45.0,27.9,29.78,SW,216,3.1,7.6,51,0.04,,,0.04,VWS V14.01,2013-02-19 14:03:00,
2013-02-19 06:08:00,45.1,28.6,29.78,SW,226,4.5,5.8,52,0.04,,,0.04,VWS V14.01,2013-02-19 14:08:00,
2013-02-19 06:13:00,45.3,29.7,29.78,SSW,211,7.6,7.6,54,0.04,,,0.04,VWS V14.01,2013-02-19 14:13:00,
2013-02-19 06:18:00,45.5,30.7,29.78,SSW,203,4.0,4.0,56,0.04,,,0.04,VWS V14.01,2013-02-19 14:18:00,
2013-02-19 06:23:00,45.5,30.7,29.78,SW,229,5.8,5.8,56,0.04,,,0.04,VWS V14.01,2013-02-19 14:23:00,
2013-02-19 06:28:00,45.5,31.2,29.78,SE,133,3.1,4.0,57,0.04,,,0.04,VWS V14.01,2013-02-19 14:28:00,
2013-02-19 06:33:00,45.5,31.6,29.78,SSE,157,3.1,4.5,58,0.04,,,0.04,VWS V14.01,2013-02-19 14:33:00,
2013-02-19 06:38:00,45.5,32.0,29.78,SW,221,4.0,4.0,59,0.04,,,0.04,VWS V14.01,2013-02-19 14:38:00,
2013-02-19 06:43:00,45.5,32.4,29.78,WSW,237,3.6,5.8,60,0.04,,,0.04,VWS V14.01,2013-02-19 14:43:00,
2013-02-19 06:48:00,45.7,33.0,29.78,SSW,197,5.4,5.4,61,0.00,,,0.04,VWS V14.01,2013-02-19 14:48:00,
2013-02-19 06:53:00,45.5,33.2,29.78,SW,214,3.1,5.8,62,0.00,,,0.04,VWS V14.01,2013-02-19 14:53:00,
2013-02-19 06:58:00,45.5,33.2,29.78,SSW,205,3.1,3.1,62,0.00,,,0.04,VWS V14.01,2013-02-19 14:58:00,
2013-02-19 07:03:00,45.7,33.4,29.78,SE,126,2.7,2.7,62,0.00,,,0.04,VWS V14.01,2013-02-19 15:03:00,
2013-02-19 07:08:00,45.7,33.8,29.78,SSW,195,2.2,4.0,63,0.00,,,0.04,VWS V14.01,2013-02-19 15:08:00,
2013-02-19 07:13:00,45.7,33.8,29.78,SSW,199,4.0,5.8,63,0.00,,,0.04,VWS V14.01,2013-02-19 15:13:00,
2013-02-19 07:18:00,45.7,33.8,29.78,South,172,3.6,3.6,63,0.00,,,0.04,VWS V14.01,2013-02-19 15:18:00,
2013-02-19 07:23:00,45.7,34.2,29.78,East,91,4.5,4.5,64,0.00,,,0.04,VWS V14.01,2013-02-19 15:23:00,
2013-02-19 07:28:00,45.7,34.2,29.78,SW,220,4.0,4.0,64,0.00,,,0.04,VWS V14.01,2013-02-19 15:28:00,
2013-02-19 07:33:00,45.9,34.4,29.78,SSW,200,2.2,4.9,64,0.00,,,0.04,VWS V14.01,2013-02-19 15:33:00,
2013-02-19 07:38:00,45.9,34.4,29.78,South,182,3.6,3.6,64,0.00,,,0.04,VWS V14.01,2013-02-19 15:38:00,
2013-02-19 07:43:00,45.9,34.4,29.75,NW,305,3.6,4.0,64,0.00,,,0.04,VWS V14.01,2013-02-19 15:43:00,
2013-02-19 07:48:00,46.0,35.0,29.75,South,171,4.9,5.4,65,0.00,,,0.04,VWS V14.01,2013-02-19 15:48:00,
2013-02-19 07:53:00,46.0,35.0,29.75,ESE,122,4.9,4.9,65,0.00,,,0.04,VWS V14.01,2013-02-19 15:53:00,
2013-02-19 07:58:00,46.0,35.0,29.75,SE,131,3.1,5.8,65,0.00,,,0.04,VWS V14.01,2013-02-19 15:58:00,
2013-02-19 08:03:00,46.0,35.0,29.75,SW,217,2.7,5.4,65,0.00,,,0.04,VWS V14.01,2013-02-19 16:03:00,
2013-02-19 08:08:00,46.0,35.0,29.75,SE,125,2.7,4.0,65,0.00,,,0.04,VWS V14.01,2013-02-19 16:08:00,
2013-02-19 08:13:00,46.2,34.7,29.75,SE,132,6.3,6.3,64,0.00,,,0.04,VWS V14.01,2013-02-19 16:13:00,
2013-02-19 08:18:00,46.2,34.3,29.75,SSE,147,5.8,6.3,63,0.00,,,0.04,VWS V14.01,2013-02-19 16:18:00,
2013-02-19 08:23:00,46.2,34.3,29.75,ENE,73,5.4,5.4,63,0.00,,,0.04,VWS V14.01,2013-02-19 16:23:00,
2013-02-19 08:28:00,46.2,33.5,29.75,SSE,159,4.9,4.9,61,0.00,,,0.04,VWS V14.01,2013-02-19 16:28:00,
2013-02-19 08:33:00,46.2,33.1,29.75,SSW,209,5.8,5.8,60,0.00,,,0.04,VWS V14.01,2013-02-19 16:33:00,
2013-02-19 08:38:00,46.4,32.9,29.75,South,185,3.1,3.1,59,0.00,,,0.04,VWS V14.01,2013-02-19 16:38:00,
2013-02-19 08:43:00,46.4,32.4,29.72,South,169,3.1,3.1,58,0.00,,,0.04,VWS V14.01,2013-02-19 16:43:00,
2013-02-19 08:48:00,46.4,32.4,29.72,SSW,206,3.1,3.6,58,0.00,,,0.04,VWS V14.01,2013-02-19 16:48:00,
2013-02-19 08:53:00,46.6,32.2,29.72,WSW,239,2.7,3.1,57,0.00,,,0.04,VWS V14.01,2013-02-19 16:53:00,
2013-02-19 08:58:00,46.4,31.6,29.72,South,178,3.1,4.0,56,0.00,,,0.04,VWS V14.01,2013-02-19 16:58:00,
2013-02-19 09:03:00,46.2,31.0,29.72,SW,236,4.0,5.8,55,0.00,,,0.04,VWS V14.01,2013-02-19 17:03:00,
2013-02-19 09:08:00,46.0,30.3,29.72,WSW,237,4.9,4.9,54,0.04,,,0.08,VWS V14.01,2013-02-19 17:08:00,
2013-02-19 09:13:00,45.7,30.5,29.72,SW,235,11.0,11.0,55,0.08,,,0.12,VWS V14.01,2013-02-19 17:13:00,
2013-02-19 09:18:00,44.8,29.6,29.72,SW,234,8.1,8.1,55,0.08,,,0.12,VWS V14.01,2013-02-19 17:18:00,
2013-02-19 09:23:00,44.4,29.7,29.72,WSW,253,6.3,6.3,56,0.16,,,0.20,VWS V14.01,2013-02-19 17:23:00,
2013-02-19 09:28:00,44.2,30.4,29.72,WSW,249,4.0,4.0,58,0.16,,,0.20,VWS V14.01,2013-02-19 17:28:00,
2013-02-19 09:33:00,44.1,31.1,29.72,SW,225,4.0,4.9,60,0.16,,,0.20,VWS V14.01,2013-02-19 17:33:00,
2013-02-19 09:38:00,44.1,31.5,29.72,WSW,240,5.4,5.4,61,0.20,,,0.24,VWS V14.01,2013-02-19 17:38:00,
2013-02-19 09:43:00,44.1,31.5,29.72,SW,229,3.6,3.6,61,0.20,,,0.24,VWS V14.01,2013-02-19 17:43:00,
2013-02-19 09:48:00,44.2,32.1,29.72,SW,222,3.6,5.4,62,0.20,,,0.24,VWS V14.01,2013-02-19 17:48:00,
2013-02-19 09:53:00,44.2,32.1,29.72,SSW,205,3.1,3.1,62,0.20,,,0.24,VWS V14.01,2013-02-19 17:53:00,
2013-02-19 09:58:00,44.2,32.5,29.72,NW,305,3.6,3.6,63,0.24,,,0.28,VWS V14.01,2013-02-19 17:58:00,
2013-02-19 10:03:00,44.4,32.6,29.72,NW,314,4.0,4.0,63,0.24,,,0.28,VWS V14.01,2013-02-19 18:03:00,
2013-02-19 10:08:00,44.1,32.7,29.72,WNW,288,5.4,5.4,64,0.20,,,0.28,VWS V14.01,2013-02-19 18:08:00,
2013-02-19 10:13:00,44.1,33.1,29.72,NNW,337,4.9,4.9,65,0.16,,,0.28,VWS V14.01,2013-02-19 18:13:00,
2013-02-19 10:18:00,43.7,32.7,29.72,West,271,4.0,4.9,65,0.16,,,0.28,VWS V14.01,2013-02-19 18:18:00,
2013-02-19 10:23:00,43.7,32.7,29.72,WSW,255,5.8,7.6,65,0.08,,,0.28,VWS V14.01,2013-02-19 18:23:00,
2013-02-19 10:28:00,43.5,32.5,29.69,WNW,286,3.6,3.6,65,0.08,,,0.28,VWS V14.01,2013-02-19 18:28:00,
2013-02-19 10:33:00,43.3,32.4,29.69,NNW,342,0.0,4.0,65,0.08,,,0.28,VWS V14.01,2013-02-19 18:33:00,
2013-02-19 10:38:00,43.3,32.0,29.69,WNW,288,0.0,2.2,64,0.04,,,0.28,VWS V14.01,2013-02-19 18:38:00,
2013-02-19 10:43:00,43.3,32.0,29.72,WNW,288,3.1,5.8,64,0.04,,,0.28,VWS V14.01,2013-02-19 18:43:00,
2013-02-19 10:48:00,43.3,31.6,29.72,NW,310,2.2,3.1,63,0.04,,,0.28,VWS V14.01,2013-02-19 18:48:00,
2013-02-19 10:53:00,43.3,31.6,29.72,NNW,329,4.0,4.0,63,0.04,,,0.28,VWS V14.01,2013-02-19 18:53:00,
2013-02-19 10:58:00,43.3,31.2,29.72,West,280,3.1,3.1,62,0.00,,,0.28,VWS V14.01,2013-02-19 18:58:00,
2013-02-19 11:03:00,43.3,31.2,29.72,West,279,0.0,0.0,62,0.00,,,0.28,VWS V14.01,2013-02-19 19:03:00,
2013-02-19 11:08:00,43.5,31.4,29.72,West,280,0.0,0.0,62,0.00,,,0.28,VWS V14.01,2013-02-19 19:08:00,
2013-02-19 11:13:00,43.7,31.1,29.72,West,269,0.0,0.0,61,0.00,,,0.28,VWS V14.01,2013-02-19 19:13:00,
2013-02-19 11:19:00,44.1,31.5,29.72,West,261,3.1,3.1,61,0.00,,,0.28,VWS V14.01,2013-02-19 19:19:00,
2013-02-19 11:24:00,44.4,31.8,29.72,West,261,0.0,0.0,61,0.00,,,0.28,VWS V14.01,2013-02-19 19:24:00,
2013-02-19 11:28:00,44.6,32.0,29.72,West,261,0.0,2.2,61,0.00,,,0.28,VWS V14.01,2013-02-19 19:28:00,
2013-02-19 11:33:00,45.1,32.5,29.72,SSW,206,2.7,3.1,61,0.00,,,0.28,VWS V14.01,2013-02-19 19:33:00,
2013-02-19 11:39:00,45.3,32.7,29.72,SSW,206,2.7,3.1,61,0.00,,,0.28,VWS V14.01,2013-02-19 19:39:00,
2013-02-19 11:44:00,45.7,32.6,29.72,SSW,213,3.6,3.6,60,0.00,,,0.28,VWS V14.01,2013-02-19 19:44:00,
2013-02-19 11:49:00,45.9,32.8,29.72,SSW,207,3.1,5.4,60,0.00,,,0.28,VWS V14.01,2013-02-19 19:49:00,
2013-02-19 11:54:00,45.3,31.4,29.72,SSW,208,2.7,4.0,58,0.00,,,0.28,VWS V14.01,2013-02-19 19:54:00,
2013-02-19 11:59:00,45.0,30.7,29.72,West,274,3.6,4.0,57,0.04,,,0.31,VWS V14.01,2013-02-19 19:59:00,
2013-02-19 12:04:00,43.3,25.5,29.72,WNW,299,3.6,4.0,49,0.04,,,0.31,VWS V14.01,2013-02-19 20:04:00,
2013-02-19 12:09:00,42.3,24.0,29.72,SSW,209,5.4,5.8,48,0.04,,,0.31,VWS V14.01,2013-02-19 20:09:00,
2013-02-19 12:14:00,41.7,23.5,29.72,WNW,288,3.6,5.4,48,0.04,,,0.31,VWS V14.01,2013-02-19 20:14:00,
2013-02-19 12:19:00,41.7,24.0,29.72,SW,230,0.0,0.0,49,0.04,,,0.31,VWS V14.01,2013-02-19 20:19:00,
2013-02-19 12:24:00,42.1,24.3,29.72,SW,232,3.1,3.1,49,0.04,,,0.31,VWS V14.01,2013-02-19 20:24:00,
2013-02-19 12:29:00,42.1,24.8,29.72,SSW,207,2.7,2.7,50,0.04,,,0.31,VWS V14.01,2013-02-19 20:29:00,
2013-02-19 12:34:00,42.3,25.0,29.72,SW,223,0.0,2.2,50,0.04,,,0.31,VWS V14.01,2013-02-19 20:34:00,
2013-02-19 12:39:00,42.3,25.0,29.72,West,262,0.0,2.2,50,0.04,,,0.31,VWS V14.01,2013-02-19 20:39:00,
2013-02-19 12:44:00,42.6,25.8,29.72,WSW,248,4.0,4.0,51,0.04,,,0.31,VWS V14.01,2013-02-19 20:44:00,
2013-02-19 12:49:00,42.8,25.9,29.72,WSW,254,3.6,3.6,51,0.04,,,0.31,VWS V14.01,2013-02-19 20:49:00,
2013-02-19 12:54:00,42.6,26.2,29.72,SW,231,5.4,6.3,52,0.04,,,0.31,VWS V14.01,2013-02-19 20:54:00,
2013-02-19 12:59:00,42.1,23.8,29.72,West,277,4.9,5.8,48,0.00,,,0.31,VWS V14.01,2013-02-19 20:59:00,
2013-02-19 13:04:00,41.7,22.0,29.72,WSW,237,2.7,3.1,45,0.04,,,0.35,VWS V14.01,2013-02-19 21:04:00,
2013-02-19 13:09:00,41.7,21.4,29.72,WSW,243,2.2,2.2,44,0.04,,,0.35,VWS V14.01,2013-02-19 21:09:00,
2013-02-19 13:14:00,41.9,21.6,29.69,SSW,207,3.6,3.6,44,0.04,,,0.35,VWS V14.01,2013-02-19 21:14:00,
2013-02-19 13:19:00,41.9,21.6,29.69,SSW,213,4.0,4.9,44,0.04,,,0.35,VWS V14.01,2013-02-19 21:19:00,
2013-02-19 13:24:00,42.1,21.8,29.69,West,259,3.6,3.6,44,0.04,,,0.35,VWS V14.01,2013-02-19 21:24:00,
2013-02-19 13:29:00,42.1,21.2,29.69,WNW,282,2.7,3.1,43,0.04,,,0.35,VWS V14.01,2013-02-19 21:29:00,
2013-02-19 13:34:00,42.1,21.2,29.69,West,270,4.0,4.0,43,0.04,,,0.35,VWS V14.01,2013-02-19 21:34:00,
2013-02-19 13:39:00,42.3,21.4,29.69,SSW,204,3.6,3.6,43,0.04,,,0.35,VWS V14.01,2013-02-19 21:39:00,
2013-02-19 13:44:00,43.0,22.0,29.69,SSW,211,3.6,3.6,43,0.04,,,0.35,VWS V14.01,2013-02-19 21:44:00,
2013-02-19 13:49:00,44.1,24.1,29.69,WSW,244,5.4,5.4,45,0.04,,,0.35,VWS V14.01,2013-02-19 21:49:00,
2013-02-19 13:54:00,45.1,25.6,29.69,SW,217,3.1,5.4,46,0.04,,,0.35,VWS V14.01,2013-02-19 21:54:00,
2013-02-19 13:59:00,46.0,26.4,29.66,WSW,245,4.0,5.4,46,0.04,,,0.35,VWS V14.01,2013-02-19 21:59:00,
2013-02-19 14:04:00,45.9,23.5,29.66,SW,217,4.0,6.3,41,0.00,,,0.35,VWS V14.01,2013-02-19 22:04:00,
2013-02-19 14:09:00,45.5,22.0,29.66,SW,214,3.6,5.8,39,0.00,,,0.35,VWS V14.01,2013-02-19 22:09:00,
2013-02-19 14:14:00,45.9,22.3,29.69,SSW,200,6.3,6.3,39,0.00,,,0.35,VWS V14.01,2013-02-19 22:14:00,
2013-02-19 14:19:00,46.4,22.2,29.69,SSW,206,5.4,7.6,38,0.00,,,0.35,VWS V14.01,2013-02-19 22:19:00,
2013-02-19 14:24:00,46.8,21.9,29.69,WNW,287,5.4,8.3,37,0.00,,,0.35,VWS V14.01,2013-02-19 22:24:00,
2013-02-19 14:29:00,47.3,18.2,29.69,South,184,4.9,4.9,31,0.00,,,0.35,VWS V14.01,2013-02-19 22:29:00,
2013-02-19 14:34:00,47.7,7.4,29.69,WSW,254,4.0,9.6,19,0.00,,,0.35,VWS V14.01,2013-02-19 22:34:00,
2013-02-19 14:39:00,46.9,10.1,29.69,West,277,8.1,8.1,22,0.00,,,0.35,VWS V14.01,2013-02-19 22:39:00,
2013-02-19 14:44:00,45.0,13.8,29.69,WNW,283,3.1,8.3,28,0.00,,,0.35,VWS V14.01,2013-02-19 22:44:00,
2013-02-19 14:49:00,43.5,14.9,29.69,North,349,0.0,2.7,31,0.00,,,0.35,VWS V14.01,2013-02-19 22:49:00,
2013-02-19 14:54:00,43.5,19.6,29.69,WNW,302,5.8,5.8,38,0.00,,,0.35,VWS V14.01,2013-02-19 22:54:00,
2013-02-19 14:59:00,43.9,20.5,29.66,NNW,345,3.1,5.4,39,0.00,,,0.35,VWS V14.01,2013-02-19 22:59:00,
2013-02-19 15:04:00,43.5,19.6,29.66,WNW,295,2.7,6.3,38,0.00,,,0.35,VWS V14.01,2013-02-19 23:04:00,
2013-02-19 15:09:00,43.0,19.1,29.66,North,357,5.8,5.8,38,0.00,,,0.35,VWS V14.01,2013-02-19 23:09:00,
2013-02-19 15:14:00,42.8,19.0,29.69,West,267,4.0,4.0,38,0.00,,,0.35,VWS V14.01,2013-02-19 23:14:00,
2013-02-19 15:19:00,43.0,19.7,29.69,WNW,283,2.7,3.1,39,0.00,,,0.35,VWS V14.01,2013-02-19 23:19:00,
2013-02-19 15:24:00,43.5,19.6,29.69,WNW,286,2.7,4.9,38,0.00,,,0.35,VWS V14.01,2013-02-19 23:24:00,
2013-02-19 15:29:00,44.1,16.8,29.66,WSW,253,3.1,4.9,33,0.00,,,0.35,VWS V14.01,2013-02-19 23:29:00,
2013-02-19 15:34:00,44.4,15.7,29.66,WNW,298,2.7,3.1,31,0.00,,,0.35,VWS V14.01,2013-02-19 23:34:00,
2013-02-19 15:39:00,44.6,15.1,29.66,West,264,2.2,4.9,30,0.00,,,0.35,VWS V14.01,2013-02-19 23:39:00,
2013-02-19 15:44:00,45.1,11.4,29.66,WNW,299,9.6,10.5,25,0.00,,,0.35,VWS V14.01,2013-02-19 23:44:00,
2013-02-19 15:49:00,46.0,7.2,29.66,NW,316,4.0,8.7,20,0.00,,,0.35,VWS V14.01,2013-02-19 23:49:00,
2013-02-19 15:54:00,46.2,3.8,29.66,West,275,7.2,7.2,17,0.00,,,0.35,VWS V14.01,2013-02-19 23:54:00,
2013-02-19 15:59:00,46.6,6.5,29.66,West,267,5.8,6.3,19,0.00,,,0.35,VWS V14.01,2013-02-19 23:59:00,
2013-02-19 16:04:00,46.9,4.4,29.66,NNW,331,5.8,7.6,17,0.00,,,0.35,VWS V14.01,2013-02-20 00:04:00,
2013-02-19 16:09:00,46.8,0.1,29.66,WNW,296,8.1,8.1,14,0.00,,,0.35,VWS V14.01,2013-02-20 00:09:00,
2013-02-19 16:15:00,46.8,4.3,29.66,NNW,344,3.6,8.1,17,0.00,,,0.35,VWS V14.01,2013-02-20 00:15:00,
2013-02-19 16:20:00,46.8,4.3,29.66,West,277,5.8,8.1,17,0.00,,,0.35,VWS V14.01,2013-02-20 00:20:00,
2013-02-19 16:25:00,46.2,1.1,29.66,WSW,237,7.6,7.6,15,0.00,,,0.35,VWS V14.01,2013-02-20 00:25:00,
2013-02-19 16:30:00,46.2,1.1,29.66,SW,214,4.0,8.3,15,0.00,,,0.35,VWS V14.01,2013-02-20 00:30:00,
2013-02-19 16:35:00,46.2,3.8,29.66,NNW,336,5.4,8.7,17,0.00,,,0.35,VWS V14.01,2013-02-20 00:35:00,
2013-02-19 16:40:00,46.2,1.1,29.66,WSW,254,3.1,3.6,15,0.00,,,0.35,VWS V14.01,2013-02-20 00:40:00,
2013-02-19 16:45:00,45.9,0.8,29.66,West,279,5.4,7.2,15,0.00,,,0.35,VWS V14.01,2013-02-20 00:45:00,
2013-02-19 16:50:00,45.7,3.4,29.66,WSW,256,4.0,8.7,17,0.00,,,0.35,VWS V14.01,2013-02-20 00:50:00,
2013-02-19 16:55:00,46.0,3.7,29.66,SW,233,4.0,4.0,17,0.00,,,0.35,VWS V14.01,2013-02-20 00:55:00,
2013-02-19 17:00:00,46.0,1.0,29.66,West,268,3.1,3.6,15,0.00,,,0.00,VWS V14.01,2013-02-20 01:00:00,
2013-02-19 17:05:00,45.5,0.6,29.66,WSW,253,5.4,5.4,15,0.00,,,0.35,VWS V14.01,2013-02-20 01:05:00,
2013-02-19 17:10:00,45.3,0.4,29.66,West,269,6.3,6.3,15,0.00,,,0.35,VWS V14.01,2013-02-20 01:10:00,
2013-02-19 17:15:00,45.1,2.9,29.66,NNW,341,2.7,2.7,17,0.00,,,0.35,VWS V14.01,2013-02-20 01:15:00,
2013-02-19 17:20:00,44.8,2.6,29.66,WNW,282,3.1,7.6,17,0.00,,,0.35,VWS V14.01,2013-02-20 01:20:00,
2013-02-19 17:25:00,44.4,3.6,29.66,WNW,296,3.6,4.0,18,0.00,,,0.35,VWS V14.01,2013-02-20 01:25:00,
2013-02-19 17:30:00,44.2,3.4,29.66,NNW,341,4.0,4.0,18,0.00,,,0.35,VWS V14.01,2013-02-20 01:30:00,
2013-02-19 17:35:00,43.9,5.4,29.66,NW,305,10.5,10.5,20,0.00,,,0.35,VWS V14.01,2013-02-20 01:35:00,
2013-02-19 17:40:00,43.5,2.8,29.66,WSW,242,0.0,3.1,18,0.00,,,0.35,VWS V14.01,2013-02-20 01:40:00,
2013-02-19 17:45:00,43.0,4.7,29.66,WNW,287,2.7,4.0,20,0.00,,,0.35,VWS V14.01,2013-02-20 01:45:00,
2013-02-19 17:50:00,42.6,5.4,29.66,WNW,303,3.1,4.9,21,0.00,,,0.35,VWS V14.01,2013-02-20 01:50:00,
2013-02-19 17:55:00,42.4,7.3,29.66,WNW,285,4.0,4.9,23,0.00,,,0.35,VWS V14.01,2013-02-20 01:55:00,
2013-02-19 18:00:00,42.3,7.1,29.66,WNW,287,3.1,4.0,23,0.00,,,0.35,VWS V14.01,2013-02-20 02:00:00,
2013-02-19 18:05:00,42.1,7.0,29.66,West,276,4.9,8.1,23,0.00,,,0.35,VWS V14.01,2013-02-20 02:05:00,
2013-02-19 18:10:00,41.9,6.8,29.66,WNW,284,3.6,3.6,23,0.00,,,0.35,VWS V14.01,2013-02-20 02:10:00,
2013-02-19 18:15:00,41.5,6.5,29.66,NNW,348,6.3,8.1,23,0.00,,,0.35,VWS V14.01,2013-02-20 02:15:00,
2013-02-19 18:20:00,41.5,6.5,29.66,NW,315,3.1,5.4,23,0.00,,,0.35,VWS V14.01,2013-02-20 02:20:00,
2013-02-19 18:25:00,41.2,6.2,29.66,West,259,3.6,5.4,23,0.00,,,0.35,VWS V14.01,2013-02-20 02:25:00,
2013-02-19 18:30:00,41.0,8.8,29.66,WNW,285,3.1,3.1,26,0.00,,,0.35,VWS V14.01,2013-02-20 02:30:00,
2013-02-19 18:35:00,41.0,8.8,29.66,WNW,300,4.0,8.3,26,0.00,,,0.35,VWS V14.01,2013-02-20 02:35:00,
2013-02-19 18:40:00,40.8,8.6,29.66,WNW,289,4.0,5.4,26,0.00,,,0.35,VWS V14.01,2013-02-20 02:40:00,
2013-02-19 18:45:00,40.8,10.2,29.66,WNW,284,6.3,6.7,28,0.00,,,0.35,VWS V14.01,2013-02-20 02:45:00,
2013-02-19 18:50:00,40.6,10.1,29.66,West,270,5.4,5.4,28,0.00,,,0.35,VWS V14.01,2013-02-20 02:50:00,
2013-02-19 18:55:00,40.5,10.7,29.66,West,272,3.1,4.0,29,0.00,,,0.35,VWS V14.01,2013-02-20 02:55:00,
2013-02-19 19:00:00,40.5,10.7,29.66,West,279,3.6,6.3,29,0.00,,,0.35,VWS V14.01,2013-02-20 03:00:00,
2013-02-19 19:05:00,40.3,10.6,29.66,West,281,6.3,6.3,29,0.00,,,0.35,VWS V14.01,2013-02-20 03:05:00,
2013-02-19 19:10:00,40.3,10.6,29.66,NW,316,2.7,4.0,29,0.00,,,0.35,VWS V14.01,2013-02-20 03:10:00,
2013-02-19 19:15:00,40.1,11.2,29.66,WNW,286,6.3,6.3,30,0.00,,,0.35,VWS V14.01,2013-02-20 03:15:00,
2013-02-19 19:20:00,40.1,11.2,29.66,West,279,4.0,4.0,30,0.00,,,0.35,VWS V14.01,2013-02-20 03:20:00,
2013-02-19 19:25:00,39.9,11.0,29.66,North,353,4.0,4.0,30,0.00,,,0.35,VWS V14.01,2013-02-20 03:25:00,
2013-02-19 19:30:00,39.9,11.0,29.66,North,4,3.6,3.6,30,0.00,,,0.35,VWS V14.01,2013-02-20 03:30:00,
2013-02-19 19:35:00,39.9,11.8,29.66,NNE,14,4.0,4.9,31,0.00,,,0.35,VWS V14.01,2013-02-20 03:35:00,
2013-02-19 19:40:00,39.9,11.8,29.69,NNW,340,5.8,5.8,31,0.00,,,0.35,VWS V14.01,2013-02-20 03:40:00,
2013-02-19 19:45:00,40.1,11.9,29.69,NW,323,2.7,5.4,31,0.00,,,0.35,VWS V14.01,2013-02-20 03:45:00,
2013-02-19 19:50:00,40.1,11.9,29.69,NW,319,3.1,4.9,31,0.00,,,0.35,VWS V14.01,2013-02-20 03:50:00,
2013-02-19 19:55:00,39.9,11.8,29.66,NNW,328,3.1,5.4,31,0.00,,,0.35,VWS V14.01,2013-02-20 03:55:00,
2013-02-19 20:00:00,39.9,11.8,29.66,WNW,288,4.0,4.0,31,0.00,,,0.35,VWS V14.01,2013-02-20 04:00:00,
2013-02-19 20:05:00,39.9,11.8,29.66,NNW,345,2.7,3.1,31,0.00,,,0.35,VWS V14.01,2013-02-20 04:05:00,
2013-02-19 20:10:00,39.9,11.8,29.66,NNW,328,0.0,3.1,31,0.00,,,0.35,VWS V14.01,2013-02-20 04:10:00,
2013-02-19 20:15:00,39.9,12.5,29.66,NNW,338,2.7,2.7,32,0.00,,,0.35,VWS V14.01,2013-02-20 04:15:00,
2013-02-19 20:20:00,39.7,12.3,29.66,NNW,338,3.1,3.1,32,0.00,,,0.35,VWS V14.01,2013-02-20 04:20:00,
2013-02-19 20:25:00,39.7,12.3,29.69,North,10,2.7,4.9,32,0.00,,,0.35,VWS V14.01,2013-02-20 04:25:00,
2013-02-19 20:30:00,39.7,12.3,29.69,NW,313,2.7,4.0,32,0.00,,,0.35,VWS V14.01,2013-02-20 04:30:00,
2013-02-19 20:35:00,39.6,12.1,29.69,North,353,0.0,3.1,32,0.00,,,0.35,VWS V14.01,2013-02-20 04:35:00,
2013-02-19 20:40:00,39.6,12.1,29.69,North,353,3.1,5.4,32,0.00,,,0.35,VWS V14.01,2013-02-20 04:40:00,
2013-02-19 20:45:00,39.6,12.1,29.69,North,357,3.6,4.0,32,0.00,,,0.35,VWS V14.01,2013-02-20 04:45:00,
2013-02-19 20:50:00,39.6,12.1,29.69,NW,309,2.2,2.7,32,0.00,,,0.35,VWS V14.01,2013-02-20 04:50:00,
2013-02-19 20:55:00,39.4,12.0,29.69,North,10,3.1,4.0,32,0.00,,,0.35,VWS V14.01,2013-02-20 04:55:00,
2013-02-19 21:00:00,39.2,11.8,29.69,NNW,345,2.7,4.5,32,0.00,,,0.35,VWS V14.01,2013-02-20 05:00:00,
2013-02-19 21:05:00,39.0,12.4,29.69,North,357,3.1,4.0,33,0.00,,,0.35,VWS V14.01,2013-02-20 05:05:00,
2013-02-19 21:10:00,38.8,12.2,29.69,North,357,0.0,2.7,33,0.00,,,0.35,VWS V14.01,2013-02-20 05:10:00,
2013-02-19 21:15:00,38.5,12.6,29.69,North,357,2.7,3.1,34,0.00,,,0.35,VWS V14.01,2013-02-20 05:15:00,
2013-02-19 21:20:00,38.5,13.9,29.69,North,357,4.0,4.0,36,0.00,,,0.35,VWS V14.01,2013-02-20 05:20:00,
2013-02-19 21:25:00,38.3,14.9,29.69,North,357,2.2,2.7,38,0.00,,,0.35,VWS V14.01,2013-02-20 05:25:00,
2013-02-19 21:30:00,38.3,15.5,29.69,North,357,4.0,4.9,39,0.00,,,0.35,VWS V14.01,2013-02-20 05:30:00,
2013-02-19 21:35:00,38.3,15.5,29.69,North,0,4.0,4.0,39,0.00,,,0.35,VWS V14.01,2013-02-20 05:35:00,
2013-02-19 21:40:00,38.1,15.4,29.69,North,0,2.7,3.1,39,0.00,,,0.35,VWS V14.01,2013-02-20 05:40:00,
2013-02-19 21:45:00,37.9,15.2,29.69,North,0,2.7,2.7,39,0.00,,,0.35,VWS V14.01,2013-02-20 05:45:00,
2013-02-19 21:50:00,37.9,15.2,29.69,NW,319,2.7,4.0,39,0.00,,,0.35,VWS V14.01,2013-02-20 05:50:00,
2013-02-19 21:55:00,37.9,15.8,29.69,NW,305,2.7,2.7,40,0.00,,,0.35,VWS V14.01,2013-02-20 05:55:00,
2013-02-19 22:00:00,38.3,16.1,29.69,NNE,16,3.6,5.8,40,0.00,,,0.35,VWS V14.01,2013-02-20 06:00:00,
2013-02-19 22:05:00,38.5,15.7,29.69,NNW,348,3.6,3.6,39,0.00,,,0.35,VWS V14.01,2013-02-20 06:05:00,
2013-02-19 22:10:00,38.7,15.9,29.69,NNW,330,2.7,4.0,39,0.00,,,0.35,VWS V14.01,2013-02-20 06:10:00,
2013-02-19 22:15:00,38.7,15.3,29.69,WNW,284,2.7,3.6,38,0.00,,,0.35,VWS V14.01,2013-02-20 06:15:00,
2013-02-19 22:20:00,38.7,15.3,29.69,NNE,23,3.1,4.0,38,0.00,,,0.35,VWS V14.01,2013-02-20 06:20:00,
2013-02-19 22:25:00,38.7,14.0,29.72,North,357,4.0,5.4,36,0.00,,,0.35,VWS V14.01,2013-02-20 06:25:00,
2013-02-19 22:30:00,38.5,13.9,29.72,NNW,338,5.4,5.4,36,0.00,,,0.35,VWS V14.01,2013-02-20 06:30:00,
2013-02-19 22:35:00,38.3,14.3,29.72,North,0,4.9,4.9,37,0.00,,,0.35,VWS V14.01,2013-02-20 06:35:00,
2013-02-19 22:40:00,38.3,14.9,29.72,North,4,4.9,4.9,38,0.00,,,0.35,VWS V14.01,2013-02-20 06:40:00,
2013-02-19 22:45:00,38.3,14.9,29.72,North,5,3.6,4.0,38,0.00,,,0.35,VWS V14.01,2013-02-20 06:45:00,
2013-02-19 22:50:00,38.3,14.9,29.72,NE,36,5.4,5.4,38,0.00,,,0.35,VWS V14.01,2013-02-20 06:50:00,
2013-02-19 22:55:00,38.3,15.5,29.72,North,1,4.0,4.0,39,0.00,,,0.35,VWS V14.01,2013-02-20 06:55:00,
2013-02-19 23:00:00,38.5,15.7,29.72,North,7,5.4,6.3,39,0.00,,,0.35,VWS V14.01,2013-02-20 07:00:00,
2013-02-19 23:05:00,38.7,15.3,29.72,NNW,341,4.0,4.0,38,0.00,,,0.35,VWS V14.01,2013-02-20 07:05:00,
2013-02-19 23:10:00,38.7,15.3,29.72,NNW,345,5.4,5.4,38,0.00,,,0.35,VWS V14.01,2013-02-20 07:10:00,
2013-02-19 23:15:00,38.5,14.5,29.72,NNE,19,6.7,6.7,37,0.00,,,0.35,VWS V14.01,2013-02-20 07:15:00,
2013-02-19 23:20:00,38.5,14.5,29.72,NW,325,3.6,3.6,37,0.00,,,0.35,VWS V14.01,2013-02-20 07:20:00,
2013-02-19 23:25:00,38.5,14.5,29.72,North,8,4.0,5.4,37,0.00,,,0.35,VWS V14.01,2013-02-20 07:25:00,
2013-02-19 23:30:00,38.5,14.5,29.72,NW,320,2.7,4.9,37,0.00,,,0.35,VWS V14.01,2013-02-20 07:30:00,
2013-02-19 23:35:00,38.5,13.9,29.72,NNW,327,3.6,4.9,36,0.00,,,0.35,VWS V14.01,2013-02-20 07:35:00,
2013-02-19 23:40:00,38.7,14.0,29.72,North,0,3.1,5.4,36,0.00,,,0.35,VWS V14.01,2013-02-20 07:40:00,
2013-02-19 23:45:00,38.7,13.4,29.72,NNE,20,3.6,3.6,35,0.00,,,0.35,VWS V14.01,2013-02-20 07:45:00,
2013-02-19 23:50:00,38.8,13.5,29.72,North,0,3.1,4.0,35,0.00,,,0.35,VWS V14.01,2013-02-20 07:50:00,
2013-02-19 23:55:00,38.7,13.4,29.72,NNE,22,4.9,4.9,35,0.00,,,0.35,VWS V14.01,2013-02-20 07:55:00,